Big Rapids, MI

4:10 AM EDT on September 26, 2017 (GMT -0400)
Roben-Hood

Weather History for KRQB - April, 2013

Change the Weather History Date:

Wednesday, April 10, 2013

  Actual Average Record
Temperature  
Mean Temperature 40 °F -  
Max Temperature 42 °F 51 °F 80 °F (2011)
Min Temperature 37 °F 27 °F 14 °F (1989)
Degree Days  
Heating Degree Days 26    
Moisture  
Dew Point 36 °F    
Average Humidity 86    
Maximum Humidity 95    
Minimum Humidity 74    
Precipitation  
Precipitation 0.00 in - - ()
Sea Level Pressure  
Sea Level Pressure 29.98 in    
Wind  
Wind Speed 8 mph (NE)    
Max Wind Speed 13 mph    
Max Gust Speed 24 mph    
Visibility 9 miles    
Events Rain , Snow    
Averages and records for this station are not official NWS values.
T = Trace of Precipitation, MM = Missing Value Source: NWS Daily Summary

Daily Weather History Graph

Daily Weather History Graph

Search for Another Location

Airport or City:

Trip Planner

Search our weather history database for the weather conditions in past years. The results will help you decide how hot, cold, wet, or windy it might be!

Date:

Astronomy

Apr. 10, 2013 Rise Set
Actual Time 7:07 AM EDT 8:19 PM EDT
Civil Twilight 6:37 AM EDT 8:49 PM EDT
Nautical Twilight 6:02 AM EDT 9:25 PM EDT
Astronomical Twilight 5:24 AM EDT 10:02 PM EDT
Moon 7:02 AM EDT (4/10) 8:57 PM EDT (4/10)
Length of Visible Light 14h 11m
Length of Day
13h 12m
New Moon, 0% of the Moon is Illuminated
Apr 10
New Moon
Apr 18
First Quarter
Apr 25
Full
May 2
Last Quarter
May 9
New

Hourly Weather History & Observations

Time (EDT) Temp. Windchill Dew Point Humidity Pressure Visibility Wind Dir Wind Speed Gust Speed Precip Events Conditions
12:15 AM 40.8 °F 37.8 °F 38.3 °F 91% 30.02 in 10.0 mi NE 4.6 mph - N/A   Overcast
12:35 AM 40.5 °F 36.5 °F 38.3 °F 92% 30.02 in 10.0 mi NE 5.8 mph - N/A Rain Light Rain
12:55 AM 40.1 °F 36.1 °F 37.9 °F 92% 30.03 in 10.0 mi NNE 5.8 mph - N/A   Overcast
1:15 AM 39.6 °F 33.5 °F 37.4 °F 92% 30.02 in 10.0 mi NE 9.2 mph - N/A   Overcast
1:35 AM 39.2 °F 33.6 °F 36.7 °F 91% 29.99 in 10.0 mi ENE 8.1 mph - N/A   Overcast
1:53 AM 39.2 °F 34.2 °F 36.5 °F 90% 30.00 in 10.0 mi ENE 6.9 mph - N/A   Overcast
2:15 AM 39.0 °F 32.8 °F 36.5 °F 91% 29.99 in 10.0 mi NE 9.2 mph - N/A   Overcast
2:35 AM 38.7 °F 33.6 °F 36.5 °F 92% 29.98 in 10.0 mi NE 6.9 mph - N/A Rain Light Rain
2:55 AM 38.5 °F 35.0 °F 36.5 °F 93% 29.97 in 10.0 mi ENE 4.6 mph - N/A   Unknown
3:14 AM 38.5 °F 34.1 °F 36.5 °F 93% 29.96 in 7.0 mi ENE 5.8 mph - N/A Rain Light Rain
3:35 AM 38.5 °F - 36.5 °F 93% 29.98 in 10.0 mi Calm Calm - N/A   Overcast
3:55 AM 38.3 °F 30.5 °F 36.5 °F 93% 29.98 in 5.0 mi North 12.7 mph - N/A Rain Light Rain
4:12 AM 37.8 °F 30.7 °F 36.5 °F 95% 29.99 in 5.0 mi NNE 10.4 mph - N/A Snow Light Snow
4:35 AM 37.4 °F 29.3 °F 35.8 °F 94% 29.97 in 7.0 mi NNE 12.7 mph - N/A Snow Light Snow
8:02 AM 37.4 °F 31.4 °F 35.6 °F 93% 29.96 in 10.0 mi ENE 8.1 mph - N/A   Overcast
8:15 AM 37.8 °F 33.3 °F 35.8 °F 93% 29.98 in 10.0 mi NNE 5.8 mph - N/A Rain Light Rain
8:34 AM 37.8 °F 31.8 °F 35.8 °F 93% 29.96 in 10.0 mi ENE 8.1 mph - N/A Rain Light Rain
8:55 AM 38.1 °F 32.9 °F 36.0 °F 92% 30.00 in 2.0 mi East 6.9 mph 21.9 mph N/A Snow Light Snow
9:15 AM 37.8 °F 31.8 °F 36.1 °F 94% 29.96 in 3.0 mi ENE 8.1 mph 16.1 mph N/A Snow Light Snow
9:35 AM 37.9 °F 31.5 °F 36.3 °F 94% 29.96 in 7.0 mi NE 9.2 mph - N/A Snow Light Snow
9:55 AM 38.3 °F 31.9 °F 36.5 °F 93% 29.97 in 10.0 mi NNE 9.2 mph - N/A Rain Light Rain
10:15 AM 38.3 °F 33.2 °F 36.3 °F 93% 29.97 in 10.0 mi ENE 6.9 mph - N/A Rain Light Rain
10:35 AM 38.1 °F 31.7 °F 36.1 °F 93% 29.96 in 3.0 mi East 9.2 mph 17.3 mph N/A Snow Light Snow
10:55 AM 38.3 °F 33.9 °F 36.1 °F 92% 30.03 in 5.0 mi SE 5.8 mph - N/A   Unknown
11:14 AM 38.1 °F 31.7 °F 36.3 °F 93% 29.96 in 2.5 mi NE 9.2 mph - N/A Snow Light Snow
11:35 AM 38.3 °F 30.9 °F 36.5 °F 93% 29.90 in 7.0 mi ENE 11.5 mph 19.6 mph N/A Rain Light Rain
11:55 AM 39.0 °F 31.8 °F 36.5 °F 91% 29.91 in 10.0 mi ENE 11.5 mph 16.1 mph N/A   Overcast
12:14 PM 39.9 °F 32.9 °F 37.0 °F 89% 29.92 in 10.0 mi ENE 11.5 mph 17.3 mph N/A   Overcast
12:35 PM 39.6 °F 32.5 °F 36.3 °F 88% 30.01 in 10.0 mi NE 11.5 mph 17.3 mph N/A   Overcast
1:15 PM 39.4 °F 35.2 °F 36.0 °F 88% 30.01 in 10.0 mi NNE 5.8 mph - N/A   Overcast
1:35 PM 39.4 °F 33.8 °F 36.1 °F 88% 30.03 in 10.0 mi North 8.1 mph - N/A   Overcast
1:54 PM 39.2 °F 33.0 °F 36.5 °F 90% 30.02 in 7.0 mi NNE 9.2 mph - N/A Rain Light Rain
2:15 PM 39.6 °F 34.0 °F 36.9 °F 90% 30.01 in 10.0 mi NNE 8.1 mph - N/A   Overcast
2:35 PM 40.1 °F 32.7 °F 37.4 °F 90% 29.99 in 10.0 mi NNE 12.7 mph 19.6 mph N/A   Overcast
2:55 PM 40.3 °F 33.9 °F 36.9 °F 88% 29.98 in 10.0 mi NE 10.4 mph - N/A   Overcast
3:15 PM 40.8 °F 34.1 °F 36.5 °F 85% 29.97 in 10.0 mi NE 11.5 mph 24.2 mph N/A   Overcast
3:34 PM 41.0 °F 33.9 °F 36.5 °F 84% 29.97 in 10.0 mi NE 12.7 mph 18.4 mph N/A   Overcast
3:55 PM 41.0 °F 37.1 °F 36.3 °F 83% 30.00 in 10.0 mi NE 5.8 mph - N/A   Overcast
4:15 PM 41.2 °F 34.5 °F 36.5 °F 83% 29.98 in 10.0 mi NNE 11.5 mph - N/A   Overcast
4:34 PM 41.4 °F 35.2 °F 36.1 °F 82% 29.97 in 10.0 mi NE 10.4 mph - N/A   Overcast
4:55 PM 41.5 °F 35.9 °F 36.0 °F 81% 29.98 in 10.0 mi NE 9.2 mph 16.1 mph N/A   Overcast
5:15 PM 42.1 °F 36.6 °F 36.1 °F 79% 30.01 in 10.0 mi NE 9.2 mph - N/A   Overcast
5:34 PM 41.9 °F 37.5 °F 36.0 °F 79% 30.03 in 10.0 mi ENE 6.9 mph - N/A   Overcast
5:55 PM 41.9 °F 37.5 °F 35.4 °F 78% 30.03 in 10.0 mi NE 6.9 mph - N/A   Overcast
6:15 PM 41.9 °F 36.9 °F 36.0 °F 79% 30.01 in 10.0 mi NNE 8.1 mph - N/A   Overcast
6:34 PM 41.9 °F 36.3 °F 36.0 °F 79% 29.99 in 10.0 mi NE 9.2 mph - N/A   Overcast
6:55 PM 41.9 °F 35.9 °F 36.0 °F 79% 29.99 in 10.0 mi NNE 10.4 mph - N/A   Overcast
7:15 PM 41.9 °F 35.9 °F 34.5 °F 75% 29.99 in 10.0 mi ENE 10.4 mph - N/A   Overcast
7:34 PM 41.2 °F 36.6 °F 35.1 °F 79% 29.94 in 10.0 mi NE 6.9 mph - N/A Rain Light Rain
7:55 PM 41.0 °F - 35.8 °F 82% 29.97 in 10.0 mi Calm Calm - N/A   Light Drizzle
8:15 PM 40.5 °F 38.4 °F 36.5 °F 86% 29.96 in 10.0 mi East 3.5 mph - N/A Rain Light Rain
8:34 PM 40.1 °F 38.0 °F 35.8 °F 85% 29.96 in 10.0 mi ENE 3.5 mph - N/A   Overcast
8:55 PM 40.1 °F 36.9 °F 34.9 °F 82% 29.98 in 10.0 mi ENE 4.6 mph - N/A   Overcast
9:15 PM 40.1 °F 36.9 °F 35.1 °F 82% 30.00 in 10.0 mi East 4.6 mph - N/A   Overcast
9:35 PM 39.6 °F 34.0 °F 32.5 °F 76% 29.99 in 10.0 mi East 8.1 mph - N/A   Overcast
9:55 PM 39.4 °F 32.3 °F 32.0 °F 75% 29.97 in 10.0 mi ENE 11.5 mph 19.6 mph N/A   Overcast
10:14 PM 39.0 °F 33.4 °F 32.0 °F 76% 29.97 in 10.0 mi ENE 8.1 mph 17.3 mph N/A   Overcast
10:35 PM 38.5 °F 32.7 °F 32.0 °F 78% 29.98 in 10.0 mi ENE 8.1 mph - N/A   Mostly Cloudy
10:55 PM 38.5 °F 32.1 °F 31.8 °F 77% 30.00 in 10.0 mi ENE 9.2 mph - N/A   Overcast
11:14 PM 38.5 °F 34.1 °F 31.6 °F 76% 30.03 in 10.0 mi ENE 5.8 mph - N/A   Overcast
11:35 PM 38.3 °F 32.5 °F 31.1 °F 75% 30.01 in 10.0 mi ENE 8.1 mph - N/A   Overcast
11:54 PM 38.3 °F 32.5 °F 30.7 °F 74% 29.99 in 10.0 mi NE 8.1 mph - N/A   Overcast